TimeCDT,TemperatureF,Dew PointF,Humidity,Sea Level PressureIn,VisibilityMPH,Wind Direction,Wind SpeedMPH,Gust SpeedMPH,PrecipitationIn,Events,Conditions,WindDirDegrees,DateUTC
12:54 AM,51.1,50.0,96,29.86,8.0,NNW,3.5,-,N/A,,Clear,330,2012-09-22 05:54:00
1:54 AM,48.9,48.0,97,29.88,5.0,SW,3.5,-,N/A,,Clear,230,2012-09-22 06:54:00
2:14 AM,48.2,48.2,100,29.88,3.0,West,5.8,-,N/A,,Scattered Clouds,260,2012-09-22 07:14:00
2:19 AM,51.8,50.0,94,29.88,1.8,WSW,5.8,-,N/A,,Mostly Cloudy,250,2012-09-22 07:19:00
2:35 AM,51.8,50.0,94,29.89,0.5,WSW,6.9,-,N/A,Fog,Fog,250,2012-09-22 07:35:00
2:44 AM,50.0,50.0,100,29.89,0.2,WSW,5.8,-,N/A,Fog,Fog,250,2012-09-22 07:44:00
2:54 AM,50.0,50.0,100,29.89,0.2,SW,8.1,-,N/A,Fog,Fog,230,2012-09-22 07:54:00
3:28 AM,50.0,50.0,100,29.90,0.5,WSW,6.9,-,N/A,Fog,Fog,250,2012-09-22 08:28:00
3:52 AM,51.8,51.8,100,29.89,1.5,WSW,5.8,-,N/A,,Overcast,240,2012-09-22 08:52:00
3:54 AM,51.1,51.1,100,29.89,1.8,WSW,4.6,-,N/A,,Overcast,240,2012-09-22 08:54:00
4:02 AM,50.0,50.0,100,29.89,2.5,SW,6.9,-,N/A,,Overcast,230,2012-09-22 09:02:00
4:16 AM,50.0,50.0,100,29.90,1.8,WSW,5.8,-,N/A,,Overcast,240,2012-09-22 09:16:00
4:54 AM,50.0,50.0,100,29.89,1.0,SW,9.2,-,0.01,,Mist,230,2012-09-22 09:54:00
5:34 AM,48.2,48.2,100,29.91,2.5,WSW,8.1,-,N/A,,Overcast,240,2012-09-22 10:34:00
5:41 AM,48.2,48.2,100,29.91,3.0,WSW,8.1,-,N/A,,Overcast,240,2012-09-22 10:41:00
5:54 AM,48.9,48.9,100,29.92,5.0,WSW,8.1,-,N/A,,Mostly Cloudy,240,2012-09-22 10:54:00
6:03 AM,48.2,48.2,100,29.92,6.0,WSW,6.9,-,N/A,,Scattered Clouds,240,2012-09-22 11:03:00
6:54 AM,48.9,48.9,100,29.94,5.0,SW,10.4,-,N/A,,Mostly Cloudy,230,2012-09-22 11:54:00
7:54 AM,52.0,50.0,93,29.96,10.0,WSW,13.8,21.9,N/A,,Mostly Cloudy,250,2012-09-22 12:54:00
8:54 AM,55.0,48.9,80,29.99,10.0,NW,19.6,27.6,N/A,,Mostly Cloudy,310,2012-09-22 13:54:00
9:54 AM,55.9,45.0,67,30.02,10.0,NW,13.8,27.6,N/A,,Clear,310,2012-09-22 14:54:00
10:54 AM,55.9,39.9,55,30.06,10.0,WNW,18.4,23.0,N/A,,Clear,300,2012-09-22 15:54:00
11:54 AM,57.0,37.9,49,30.08,10.0,NW,16.1,26.5,N/A,,Clear,310,2012-09-22 16:54:00
12:54 PM,57.2,32.0,38,30.09,10.0,NNW,20.7,27.6,N/A,,Clear,330,2012-09-22 17:54:00
1:54 PM,60.1,33.1,36,30.11,10.0,NW,17.3,24.2,N/A,,Clear,320,2012-09-22 18:54:00
2:54 PM,60.1,35.1,39,30.11,10.0,NW,12.7,21.9,N/A,,Clear,310,2012-09-22 19:54:00
3:54 PM,61.0,35.1,38,30.13,10.0,NW,11.5,-,N/A,,Clear,320,2012-09-22 20:54:00
4:54 PM,61.0,34.0,36,30.14,10.0,NW,9.2,-,N/A,,Clear,320,2012-09-22 21:54:00
5:54 PM,59.0,34.0,39,30.16,10.0,NW,9.2,-,N/A,,Clear,320,2012-09-22 22:54:00
6:54 PM,53.1,37.9,57,30.17,10.0,North,6.9,-,N/A,,Clear,350,2012-09-22 23:54:00
7:54 PM,54.0,37.0,53,30.18,10.0,NNW,4.6,-,N/A,,Clear,330,2012-09-23 00:54:00
8:54 PM,52.0,37.9,59,30.20,10.0,NW,5.8,-,N/A,,Clear,310,2012-09-23 01:54:00
9:54 PM,48.9,37.9,66,30.21,10.0,NW,6.9,-,N/A,,Clear,320,2012-09-23 02:54:00
10:54 PM,48.0,37.9,68,30.22,10.0,NW,4.6,-,N/A,,Clear,320,2012-09-23 03:54:00
11:54 PM,48.9,37.9,66,30.22,10.0,NW,8.1,-,N/A,,Clear,310,2012-09-23 04:54:00